Weather History for Crystal River, FL

Change the Weather History Date:

Thursday, October 13, 2011

  Actual Average (KBKV) Record (KBKV)
Temperature  
Mean Temperature 77 °F -  
Max Temperature 86 °F 82 °F 90 °F (2002)
Min Temperature 68 °F 60 °F 55 °F (2006)
Cooling Degree Days 12    
Growing Degree Days 27 (Base 50)    
Moisture  
Dew Point 70 °F    
Average Humidity 85    
Maximum Humidity 100    
Minimum Humidity 66    
Precipitation  
Precipitation 0.00 in - - ()
Sea Level Pressure  
Sea Level Pressure 29.79 in    
Wind  
Wind Speed 2 mph (WNW)    
Max Wind Speed 10 mph    
Max Gust Speed -    
Visibility 10 miles    
Events      
Averages and records for this station are not official NWS values.
T = Trace of Precipitation, MM = Missing Value Source: NWS Daily Summary

Daily Weather History Graph

Daily Weather History Graph

Search for Another Location

Airport:

Trip Planner

Search our weather history database for the weather conditions in past years. The results will help you decide how hot, cold, wet, or windy it might be!

Date:

Astronomy

Oct. 13, 2011 Rise Set
Actual Time 7:29 AM EDT 7:02 PM EDT
Civil Twilight 7:06 AM EDT 7:26 PM EDT
Nautical Twilight 6:38 AM EDT 7:53 PM EDT
Astronomical Twilight 6:11 AM EDT 8:21 PM EDT
Moon 7:51 PM EDT (10/13) 8:48 AM EDT (10/13)
Length of Visible Light 12h 20m
Length of Day
11h 32m
Full, 98% of the Moon is Illuminated
Oct 13
Full
Oct 19
Last Quarter
Oct 26
New
Nov 2
First Quarter
Nov 10
Full

Hourly Weather History & Observations

Time (EDT) Temp. Heat Index Dew Point Humidity Pressure Visibility Wind Dir Wind Speed Gust Speed Precip Events Conditions
12:35 AM 71.6 °F - 69.8 °F 94% 29.83 in 10.0 mi Calm Calm - N/A   Clear
12:55 AM 71.6 °F - 69.8 °F 94% 29.82 in 10.0 mi Calm Calm - N/A   Clear
1:15 AM 71.6 °F - 69.8 °F 94% 29.82 in 10.0 mi Calm Calm - N/A   Clear
1:35 AM 71.6 °F - 69.8 °F 94% 29.82 in 10.0 mi Calm Calm - N/A   Clear
2:15 AM 71.6 °F - 69.8 °F 94% 29.82 in 10.0 mi Calm Calm - N/A   Clear
2:35 AM 71.6 °F - 69.8 °F 94% 29.82 in 10.0 mi Calm Calm - N/A   Clear
2:55 AM 69.8 °F - 69.8 °F 100% 29.81 in 10.0 mi Calm Calm - N/A   Partly Cloudy
3:15 AM 69.8 °F - 69.8 °F 100% 29.80 in 10.0 mi Calm Calm - N/A   Clear
3:35 AM 69.8 °F - 69.8 °F 100% 29.80 in 10.0 mi Calm Calm - N/A   Clear
3:55 AM 69.8 °F - 68.0 °F 94% 29.80 in 10.0 mi Calm Calm - N/A   Clear
4:15 AM 69.8 °F - 68.0 °F 94% 29.80 in 10.0 mi Calm Calm - N/A   Clear
4:35 AM 68.0 °F - 66.2 °F 94% 29.79 in 10.0 mi Calm Calm - N/A   Partly Cloudy
4:55 AM 68.0 °F - 66.2 °F 94% 29.79 in 10.0 mi Calm Calm - N/A   Partly Cloudy
5:15 AM 68.0 °F - 66.2 °F 94% 29.78 in 10.0 mi Calm Calm - N/A   Clear
5:35 AM 68.0 °F - 66.2 °F 94% 29.79 in 10.0 mi Calm Calm - N/A   Clear
5:55 AM 68.0 °F - 66.2 °F 94% 29.80 in 10.0 mi Calm Calm - N/A   Partly Cloudy
6:15 AM 68.0 °F - 66.2 °F 94% 29.79 in 10.0 mi Calm Calm - N/A   Partly Cloudy
6:35 AM 68.0 °F - 66.2 °F 94% 29.80 in 10.0 mi Calm Calm - N/A   Partly Cloudy
6:55 AM 68.0 °F - 66.2 °F 94% 29.80 in 10.0 mi Calm Calm - N/A   Scattered Clouds
7:15 AM 68.0 °F - 66.2 °F 94% 29.80 in 10.0 mi Calm Calm - N/A   Mostly Cloudy
7:35 AM 68.0 °F - 66.2 °F 94% 29.80 in 10.0 mi Calm Calm - N/A   Partly Cloudy
7:55 AM 69.8 °F - 69.8 °F 100% 29.81 in 10.0 mi Calm Calm - N/A   Clear
8:35 AM 69.8 °F - 69.8 °F 100% 29.81 in 10.0 mi Calm Calm - N/A   Clear
8:55 AM 71.6 °F - 69.8 °F 94% 29.81 in 10.0 mi Calm Calm - N/A   Scattered Clouds
9:15 AM 71.6 °F - 69.8 °F 94% 29.81 in 10.0 mi Calm Calm - N/A   Mostly Cloudy
9:35 AM 75.2 °F - 71.6 °F 89% 29.81 in 10.0 mi Calm Calm - N/A   Scattered Clouds
10:15 AM 82.4 °F 89.5 °F 75.2 °F 79% 29.80 in 10.0 mi Variable 5.8 mph - N/A   Partly Cloudy
10:35 AM 82.4 °F 89.5 °F 75.2 °F 79% 29.80 in 10.0 mi WNW 5.8 mph - N/A   Mostly Cloudy
10:55 AM 84.2 °F 90.9 °F 73.4 °F 70% 29.80 in 10.0 mi Variable 5.8 mph - N/A   Mostly Cloudy
11:15 AM 82.4 °F 88.2 °F 73.4 °F 74% 29.81 in 10.0 mi Variable 4.6 mph - N/A   Scattered Clouds
11:35 AM 82.4 °F 88.2 °F 73.4 °F 74% 29.81 in 10.0 mi Variable 5.8 mph - N/A   Scattered Clouds
11:55 AM 84.2 °F 90.9 °F 73.4 °F 70% 29.81 in 10.0 mi West 6.9 mph - N/A   Mostly Cloudy
12:15 PM 82.4 °F 87.2 °F 71.6 °F 70% 29.81 in 10.0 mi Variable 4.6 mph - N/A   Partly Cloudy
12:35 PM 86.0 °F 93.4 °F 73.4 °F 66% 29.80 in 10.0 mi Variable 4.6 mph - N/A   Scattered Clouds
12:55 PM 84.2 °F 89.6 °F 71.6 °F 66% 29.80 in 10.0 mi West 9.2 mph - N/A   Scattered Clouds
1:15 PM 84.2 °F 89.6 °F 71.6 °F 66% 29.79 in 10.0 mi WNW 9.2 mph - N/A   Mostly Cloudy
1:35 PM 82.4 °F 87.2 °F 71.6 °F 70% 29.79 in 10.0 mi WNW 10.4 mph - N/A   Overcast
1:55 PM 82.4 °F 88.2 °F 73.4 °F 74% 29.78 in 10.0 mi WNW 6.9 mph - N/A   Mostly Cloudy
2:15 PM 82.4 °F 87.2 °F 71.6 °F 70% 29.77 in 10.0 mi Variable 6.9 mph - N/A   Scattered Clouds
2:35 PM 84.2 °F 89.6 °F 71.6 °F 66% 29.76 in 10.0 mi Variable 6.9 mph - N/A   Partly Cloudy
2:55 PM 84.2 °F 89.6 °F 71.6 °F 66% 29.76 in 10.0 mi Variable 5.8 mph - N/A   Mostly Cloudy
3:15 PM 84.2 °F 89.6 °F 71.6 °F 66% 29.75 in 10.0 mi Variable 5.8 mph - N/A   Overcast
3:35 PM 84.2 °F 89.6 °F 71.6 °F 66% 29.75 in 10.0 mi Variable 3.5 mph - N/A   Mostly Cloudy
3:55 PM 82.4 °F 87.2 °F 71.6 °F 70% 29.75 in 10.0 mi Variable 6.9 mph - N/A   Overcast
4:15 PM 82.4 °F 87.2 °F 71.6 °F 70% 29.75 in 10.0 mi WSW 8.1 mph - N/A   Mostly Cloudy
4:35 PM 82.4 °F 87.2 °F 71.6 °F 70% 29.74 in 10.0 mi Variable 4.6 mph - N/A   Mostly Cloudy
4:55 PM 82.4 °F 87.2 °F 71.6 °F 70% 29.74 in 10.0 mi Variable 6.9 mph - N/A   Scattered Clouds
5:15 PM 82.4 °F 87.2 °F 71.6 °F 70% 29.74 in 10.0 mi Variable 4.6 mph - N/A   Scattered Clouds
5:35 PM 80.6 °F 85.4 °F 73.4 °F 79% 29.73 in 10.0 mi Variable 5.8 mph - N/A   Mostly Cloudy
5:55 PM 80.6 °F 85.4 °F 73.4 °F 79% 29.73 in 10.0 mi Variable 5.8 mph - N/A   Mostly Cloudy
6:15 PM 80.6 °F 84.6 °F 71.6 °F 74% 29.73 in 10.0 mi Variable 4.6 mph - N/A   Scattered Clouds
6:35 PM 78.8 °F - 71.6 °F 78% 29.73 in 10.0 mi Variable 3.5 mph - N/A   Partly Cloudy
6:55 PM 78.8 °F - 73.4 °F 83% 29.73 in 10.0 mi Calm Calm - N/A   Partly Cloudy
7:15 PM 78.8 °F - 73.4 °F 83% 29.73 in 10.0 mi Calm Calm - N/A   Scattered Clouds
7:35 PM 77.0 °F - 71.6 °F 83% 29.74 in 10.0 mi Calm Calm - N/A   Partly Cloudy
8:15 PM 77.0 °F - 71.6 °F 83% 29.75 in 10.0 mi Calm Calm - N/A   Partly Cloudy
8:35 PM 75.2 °F - 71.6 °F 89% 29.76 in 10.0 mi Calm Calm - N/A   Clear
8:55 PM 73.4 °F - 71.6 °F 94% 29.76 in 10.0 mi Calm Calm - N/A   Clear
9:15 PM 73.4 °F - 71.6 °F 94% 29.77 in 10.0 mi Calm Calm - N/A   Clear
9:35 PM 73.4 °F - 69.8 °F 88% 29.78 in 10.0 mi Calm Calm - N/A   Clear
9:55 PM 71.6 °F - 69.8 °F 94% 29.78 in 10.0 mi Calm Calm - N/A   Clear
10:15 PM 71.6 °F - 69.8 °F 94% 29.79 in 10.0 mi Calm Calm - N/A   Clear
10:35 PM 71.6 °F - 69.8 °F 94% 29.80 in 10.0 mi Calm Calm - N/A   Scattered Clouds
10:55 PM 71.6 °F - 69.8 °F 94% 29.81 in 10.0 mi Calm Calm - N/A   Mostly Cloudy
11:15 PM 71.6 °F - 69.8 °F 94% 29.82 in 10.0 mi Calm Calm - N/A   Partly Cloudy
11:35 PM 71.6 °F - 69.8 °F 94% 29.82 in 10.0 mi Calm Calm - N/A   Clear
11:55 PM 71.6 °F - 69.8 °F 94% 29.82 in 10.0 mi Calm Calm - N/A   Partly Cloudy